"startDT [UTC]","vpos","CH4 [ppm]","stdev(CH4) [ppm]","CO2 [ppm]","stdev(CO2) [ppm]","H2O_reported [%]","stdev(H2O_reported)","CavityPressure [torr]","CavityTemp [C]","OutletValve","CH4_dry [ppm]","CO2_dry [ppm]","DasTemp [C]","EtalonTemp [C]","WarmBoxTemp [C]","MPVPosition","T_ECpre [C]","T_EC1 [C]","T_EC2 [C]","p_inlet [hPa]","p_in [hPa]","p_out [hPa]","T_inlet [C]","RH_inlet [%]","dwpt_inlet [C]","T_vent [C]","RH_vent [%]","dwpt_vent [C]","flow_vent [l min-1]","flow_inlet [l min-1]","dwpt_sample [C]","T_room [C]"
2015-08-07 00:00:00,0.0,2.03642,0.00044,382.165,0.050,1.2824,0.0016,139.999,45.000,34442.44870,2.06325,388.311,33.250,45.068,45.000,0.00,0.10,-272.73,-272.79,-8,1001,-6,24.1,34.0,7.3,23.9,34.9,7.5,5.73,1.92,3.9,27.9
2015-08-07 00:01:00,0.0,2.03606,0.00043,382.165,0.043,1.2822,0.0023,140.000,45.000,34444.63775,2.06284,388.313,33.249,45.068,45.000,0.00,0.10,-272.73,-272.80,-8,1002,-6,24.1,34.0,7.2,23.9,35.0,7.5,5.73,1.95,3.9,27.8
2015-08-07 00:02:00,0.0,2.03639,0.00035,382.141,0.066,1.2823,0.0024,140.001,45.000,34443.02954,2.06318,388.283,33.250,45.068,45.000,0.00,0.10,-272.73,-272.79,-8,1001,-6,24.1,34.0,7.3,23.9,35.0,7.5,5.73,1.96,3.9,27.9
2015-08-07 00:03:00,0.0,2.03679,0.00051,382.092,0.079,1.2826,0.0015,139.998,45.000,34438.57124,2.06358,388.243,33.250,45.068,45.000,0.00,0.10,-272.73,-272.79,-8,1001,-6,24.1,34.0,7.3,23.9,35.0,7.5,5.73,1.94,3.9,27.9
2015-08-07 00:04:00,0.0,2.03654,0.00039,382.116,0.085,1.2878,0.0016,139.996,45.000,34438.29932,2.06347,388.282,33.251,45.068,45.000,0.00,0.10,-272.73,-272.80,-8,1002,-6,24.1,34.1,7.3,23.9,35.1,7.5,5.73,1.91,3.9,27.9
2015-08-07 00:05:00,0.0,2.03556,0.00081,382.270,0.047,1.2875,0.0018,140.000,45.000,34441.32717,2.06247,388.444,33.250,45.068,45.000,0.00,0.10,-272.73,-272.80,-8,1002,-6,24.1,34.1,7.3,23.9,35.1,7.5,5.73,1.89,3.9,27.9
2015-08-07 00:06:00,0.0,2.03552,0.00046,382.126,0.086,1.2895,0.0015,139.997,45.000,34441.07497,2.06246,388.314,33.250,45.068,45.000,0.00,0.10,-272.73,-272.79,-8,1002,-6,24.1,34.1,7.3,23.9,35.1,7.5,5.73,1.87,4.0,27.8
2015-08-07 00:07:00,0.0,2.03627,0.00070,382.186,0.055,1.2876,0.0019,139.999,45.000,34442.91206,2.06312,388.352,33.253,45.068,45.000,0.00,0.10,-272.73,-272.79,-8,1001,-6,24.1,34.1,7.3,23.9,35.1,7.5,5.73,1.89,3.9,27.8
2015-08-07 00:08:00,0.0,2.03574,0.00038,382.242,0.045,1.2873,0.0021,139.999,45.000,34441.92031,2.06272,388.411,33.250,45.068,45.000,0.00,0.10,-272.74,-272.80,-8,1001,-6,24.1,34.1,7.3,23.9,35.1,7.5,5.73,1.92,4.0,27.9
2015-08-07 00:09:00,0.0,2.03639,0.00053,382.249,0.060,1.2870,0.0024,139.999,45.000,34439.60230,2.06324,388.425,33.251,45.068,45.000,0.00,0.10,-272.73,-272.79,-8,1002,-6,24.1,34.1,7.3,23.9,35.1,7.5,5.73,1.94,3.9,27.9
2015-08-07 00:10:00,0.0,2.03650,0.00047,382.179,0.080,1.2865,0.0020,140.002,45.000,34441.62737,2.06337,388.344,33.250,45.068,45.000,0.00,0.10,-272.73,-272.79,-8,1002,-6,24.1,34.0,7.3,23.9,35.1,7.5,5.73,1.96,3.9,27.9
2015-08-07 00:11:00,0.0,2.03608,0.00029,382.296,0.048,1.2843,0.0016,139.998,45.000,34442.78257,2.06295,388.451,33.250,45.068,45.000,0.00,0.10,-272.74,-272.79,-8,1002,-6,24.1,34.0,7.3,23.9,35.0,7.5,5.73,1.95,4.0,27.9
2015-08-07 00:12:00,0.0,2.03637,0.00034,382.258,0.029,1.2831,0.0018,140.002,45.000,34444.10958,2.06317,388.413,33.248,45.068,45.000,0.00,0.10,-272.73,-272.79,-8,1001,-6,24.1,34.0,7.3,23.9,35.0,7.5,5.73,1.91,3.9,27.9
2015-08-07 00:13:00,0.0,2.03646,0.00064,382.244,0.068,1.2820,0.0026,139.998,45.000,34445.28274,2.06326,388.389,33.250,45.068,45.000,0.00,0.10,-272.73,-272.79,-8,1001,-6,24.1,33.9,7.2,23.9,35.0,7.5,5.73,1.89,4.0,27.9
2015-08-07 00:14:00,0.0,2.03607,0.00040,382.178,0.058,1.2846,0.0020,140.003,45.000,34446.22294,2.06290,388.338,33.250,45.068,45.000,0.00,0.10,-272.73,-272.79,-8,1001,-6,24.1,34.0,7.3,23.9,35.0,7.5,5.73,1.88,3.9,27.9
2015-08-07 00:15:00,0.0,2.03619,0.00036,382.097,0.113,1.2828,0.0018,140.000,45.000,34445.26194,2.06294,388.248,33.250,45.068,45.000,0.00,0.10,-272.73,-272.79,-8,1002,-6,24.1,34.0,7.3,23.9,35.0,7.5,5.73,1.88,3.9,27.9
2015-08-07 00:16:00,0.0,2.03671,0.00041,382.067,0.071,1.2847,0.0025,139.999,45.000,34443.58667,2.06353,388.223,33.253,45.068,45.000,0.00,0.10,-272.73,-272.79,-8,1002,-6,24.1,34.0,7.3,23.9,35.0,7.5,5.73,1.91,4.0,27.9
2015-08-07 00:17:00,0.0,2.03722,0.00040,382.119,0.035,1.2848,0.0020,139.997,45.000,34442.98489,2.06408,388.275,33.253,45.068,45.000,0.00,0.10,-272.73,-272.79,-8,1001,-6,24.1,34.1,7.3,23.9,35.0,7.5,5.73,1.94,4.0,27.8
2015-08-07 00:18:00,0.0,2.03764,0.00035,381.950,0.054,1.2863,0.0019,139.999,45.000,34440.84209,2.06449,388.120,33.253,45.068,45.000,0.00,0.10,-272.74,-272.80,-8,1002,-6,24.1,34.1,7.3,23.9,35.1,7.5,5.73,1.95,3.9,27.9
2015-08-07 00:19:00,0.0,2.03688,0.00049,382.081,0.181,1.2888,0.0015,140.000,45.000,34442.51926,2.06389,388.250,33.257,45.068,45.000,0.00,0.10,-272.73,-272.80,-8,1001,-6,24.1,34.2,7.3,23.9,35.1,7.5,5.73,1.95,3.9,27.9
2015-08-07 00:20:00,0.0,2.03686,0.00074,382.160,0.071,1.2910,0.0019,139.994,45.000,34439.64231,2.06374,388.347,33.253,45.068,45.000,0.00,0.10,-272.73,-272.79,-8,1001,-6,24.1,34.2,7.4,23.9,35.2,7.5,5.73,1.93,3.9,27.9
2015-08-07 00:21:00,0.0,2.03721,0.00042,382.039,0.170,1.2928,0.0023,140.004,45.000,34439.70196,2.06432,388.230,33.251,45.068,45.000,0.00,0.10,-272.74,-272.80,-8,1001,-6,24.1,34.3,7.4,23.9,35.2,7.6,5.73,1.90,4.0,28.0
2015-08-07 00:22:00,0.0,2.03683,0.00045,382.280,0.052,1.2944,0.0015,139.997,45.000,34438.59411,2.06394,388.489,33.267,45.068,45.000,0.00,0.10,-272.74,-272.79,-8,1001,-6,24.1,34.3,7.4,23.9,35.3,7.6,5.73,1.88,3.9,27.9
2015-08-07 00:23:00,0.0,2.03701,0.00046,382.222,0.085,1.2955,0.0022,139.997,45.000,34438.55040,2.06403,388.441,33.256,45.068,45.000,0.00,0.10,-272.73,-272.79,-8,1001,-6,24.1,34.3,7.4,23.9,35.3,7.6,5.73,1.88,3.9,27.9
2015-08-07 00:24:00,0.0,2.03748,0.00031,381.893,0.239,1.2960,0.0021,139.999,45.000,34436.97436,2.06458,388.100,33.257,45.068,45.000,0.00,0.10,-272.73,-272.79,-8,1001,-6,24.1,34.4,7.4,23.9,35.3,7.6,5.73,1.89,4.0,27.9
2015-08-07 00:25:00,0.0,2.03735,0.00053,382.119,0.072,1.2973,0.0024,140.000,45.000,34440.48955,2.06448,388.340,33.279,45.068,45.000,0.00,0.10,-272.73,-272.80,-8,1001,-6,24.1,34.4,7.4,23.9,35.4,7.6,5.73,1.92,4.0,27.9
2015-08-07 00:26:00,0.0,2.03720,0.00022,382.120,0.055,1.2966,0.0018,140.001,45.000,34441.19295,2.06435,388.339,33.265,45.068,45.000,0.00,0.10,-272.73,-272.79,-8,1001,-6,24.1,34.3,7.4,23.9,35.3,7.6,5.73,1.94,4.0,27.9
2015-08-07 00:27:00,0.0,2.03722,0.00029,382.052,0.145,1.2938,0.0019,140.002,45.000,34442.95303,2.06423,388.253,33.275,45.068,45.000,0.00,0.10,-272.73,-272.79,-8,1001,-6,24.2,34.2,7.4,23.9,35.3,7.6,5.73,1.95,4.0,27.9
2015-08-07 00:28:00,0.0,2.03729,0.00036,381.999,0.195,1.2927,0.0022,140.001,45.000,34442.99628,2.06436,388.192,33.262,45.068,45.000,0.00,0.10,-272.73,-272.80,-8,1001,-6,24.1,34.2,7.4,23.9,35.2,7.6,5.73,1.95,3.9,27.9
2015-08-07 00:29:00,0.0,2.03715,0.00036,382.187,0.039,1.2937,0.0021,140.004,45.000,34445.22216,2.06419,388.390,33.296,45.068,45.000,0.00,0.10,-272.73,-272.79,-8,1001,-6,24.1,34.2,7.4,23.9,35.2,7.6,5.73,1.93,4.0,27.9
2015-08-07 00:30:00,0.0,2.03789,0.00036,381.987,0.166,1.2928,0.0015,140.000,45.000,34442.80727,2.06491,388.187,33.273,45.068,45.000,0.00,0.10,-272.72,-272.79,-8,1001,-6,24.1,34.2,7.4,23.9,35.2,7.6,5.73,1.90,4.0,27.9
2015-08-07 00:31:00,0.0,2.03740,0.00037,381.836,0.162,1.2929,0.0018,139.998,45.000,34441.77026,2.06446,388.030,33.290,45.068,45.000,0.00,0.10,-272.73,-272.79,-8,1001,-6,24.1,34.2,7.4,23.9,35.2,7.6,5.73,1.88,4.0,27.9
2015-08-07 00:32:00,0.0,2.03667,0.00086,382.076,0.124,1.2952,0.0023,140.002,45.000,34441.67948,2.06384,388.277,33.298,45.068,45.000,0.00,0.10,-272.73,-272.80,-7,1001,-6,24.1,34.4,7.4,23.9,35.3,7.6,5.73,1.87,4.0,27.9
2015-08-07 00:33:00,0.0,2.03686,0.00038,381.833,0.190,1.2994,0.0021,140.004,45.000,34441.77902,2.06394,388.070,33.304,45.068,45.000,0.00,0.10,-272.72,-272.79,-8,1002,-6,24.1,34.4,7.4,23.9,35.4,7.6,5.73,1.90,4.0,27.8
2015-08-07 00:34:00,0.0,2.03677,0.00056,382.022,0.127,1.3004,0.0023,139.997,45.000,34443.19562,2.06400,388.248,33.309,45.068,45.000,0.00,0.10,-272.73,-272.80,-8,1001,-6,24.1,34.5,7.5,23.9,35.5,7.7,5.73,1.92,4.0,27.8
2015-08-07 00:35:00,0.0,2.03663,0.00052,382.220,0.094,1.3013,0.0017,140.000,45.000,34443.98887,2.06381,388.467,33.287,45.068,45.000,0.00,0.10,-272.74,-272.80,-8,1001,-6,24.1,34.5,7.5,23.9,35.5,7.7,5.73,1.95,4.0,27.8
2015-08-07 00:36:00,0.0,2.03713,0.00049,382.135,0.080,1.3024,0.0020,139.999,45.000,34441.49462,2.06442,388.374,33.294,45.068,45.000,0.00,0.10,-272.73,-272.79,-8,1001,-6,24.1,34.5,7.5,23.9,35.5,7.7,5.73,1.95,4.0,27.8
2015-08-07 00:37:00,0.0,2.03747,0.00044,382.082,0.103,1.3028,0.0022,139.999,45.000,34442.42935,2.06463,388.333,33.281,45.068,45.000,0.00,0.10,-272.73,-272.79,-8,1001,-6,24.1,34.5,7.5,23.9,35.5,7.7,5.73,1.94,4.0,27.8
2015-08-07 00:38:00,0.0,2.03742,0.00061,382.047,0.081,1.2999,0.0018,139.998,45.000,34440.69490,2.06468,388.276,33.287,45.068,45.000,0.00,0.10,-272.74,-272.79,-8,1002,-6,24.1,34.4,7.4,23.9,35.5,7.7,5.73,1.92,4.0,27.8
2015-08-07 00:39:00,0.0,2.03628,0.00076,382.284,0.067,1.2966,0.0025,139.997,45.000,34440.36296,2.06337,388.504,33.267,45.068,45.000,0.00,0.10,-272.73,-272.79,-8,1002,-6,24.1,34.3,7.4,23.9,35.4,7.6,5.73,1.89,4.0,27.9
2015-08-07 00:40:00,0.0,2.03658,0.00044,382.214,0.075,1.2941,0.0017,139.998,45.000,34440.56507,2.06367,388.424,33.277,45.068,45.000,0.00,0.10,-272.72,-272.79,-8,1002,-6,24.1,34.2,7.4,23.9,35.2,7.6,5.73,1.87,4.0,27.9
2015-08-07 00:41:00,0.0,2.03756,0.00041,382.148,0.064,1.2917,0.0027,140.001,45.000,34440.97760,2.06449,388.341,33.257,45.068,45.000,0.00,0.10,-272.73,-272.79,-8,1001,-6,24.1,34.1,7.3,23.9,35.2,7.5,5.73,1.88,4.0,27.8
2015-08-07 00:42:00,0.0,2.03802,0.00038,382.082,0.116,1.2921,0.0017,140.000,45.000,34441.73086,2.06506,388.271,33.260,45.068,45.000,0.00,0.10,-272.73,-272.79,-8,1001,-6,24.2,34.1,7.3,23.9,35.2,7.6,5.73,1.90,4.0,27.9
2015-08-07 00:43:00,0.0,2.03793,0.00075,382.077,0.112,1.2920,0.0019,140.002,45.000,34443.78801,2.06498,388.269,33.272,45.068,45.000,0.00,0.10,-272.73,-272.79,-8,1001,-6,24.1,34.1,7.3,23.9,35.2,7.5,5.73,1.92,4.0,27.8
2015-08-07 00:44:00,0.0,2.03779,0.00042,381.818,0.251,1.2939,0.0028,140.002,45.000,34442.62203,2.06484,388.017,33.274,45.068,45.000,0.00,0.10,-272.73,-272.80,-8,1002,-6,24.1,34.2,7.4,23.9,35.2,7.6,5.73,1.95,4.0,27.8
2015-08-07 00:45:00,0.0,2.03770,0.00047,382.074,0.050,1.2964,0.0021,140.000,45.000,34443.85133,2.06490,388.288,33.288,45.068,45.000,0.00,0.10,-272.73,-272.80,-8,1002,-6,24.2,34.3,7.4,23.9,35.3,7.6,5.73,1.95,4.0,27.9
2015-08-07 00:46:00,0.0,2.03715,0.00049,382.006,0.139,1.2990,0.0020,139.999,45.000,34441.38787,2.06426,388.243,33.296,45.068,45.000,0.00,0.10,-272.73,-272.79,-8,1002,-6,24.1,34.4,7.4,23.9,35.4,7.7,5.73,1.94,4.0,27.9
2015-08-07 00:47:00,0.0,2.03713,0.00058,381.976,0.160,1.3027,0.0023,139.996,45.000,34442.22757,2.06435,388.210,33.302,45.068,45.000,0.00,0.10,-272.73,-272.79,-8,1001,-6,24.2,34.5,7.5,23.9,35.5,7.7,5.73,1.92,4.0,27.9
2015-08-07 00:48:00,0.0,2.03646,0.00074,381.831,0.229,1.3044,0.0027,140.003,45.000,34443.22766,2.06383,388.092,33.297,45.068,45.000,0.00,0.10,-272.73,-272.80,-8,1001,-6,24.1,34.5,7.5,23.9,35.6,7.7,5.73,1.89,4.0,27.9
2015-08-07 00:49:00,0.0,2.03577,0.00068,381.813,0.270,1.3037,0.0016,140.003,45.000,34442.51917,2.06307,388.054,33.307,45.068,45.000,0.00,0.10,-272.73,-272.79,-8,1001,-6,24.2,34.5,7.5,23.9,35.6,7.7,5.73,1.87,4.0,27.9
2015-08-07 00:50:00,0.0,2.03609,0.00044,381.709,0.177,1.3045,0.0018,140.005,45.000,34445.03989,2.06327,387.964,33.305,45.068,45.000,0.00,0.10,-272.72,-272.78,-8,1001,-6,24.2,34.5,7.5,23.9,35.6,7.7,5.73,1.88,4.0,27.9
2015-08-07 00:51:00,0.0,2.03752,0.00085,381.725,0.128,1.3054,0.0023,140.003,45.000,34445.19115,2.06478,387.986,33.310,45.068,45.000,0.00,0.10,-272.73,-272.79,-8,1002,-6,24.2,34.5,7.5,23.9,35.6,7.8,5.73,1.90,4.0,28.0
2015-08-07 00:52:00,0.0,2.03695,0.00046,381.959,0.197,1.3073,0.0023,139.997,45.000,34444.87942,2.06433,388.219,33.313,45.068,45.000,0.00,0.10,-272.73,-272.79,-8,1001,-6,24.2,34.5,7.5,23.9,35.6,7.7,5.73,1.92,4.0,27.9
2015-08-07 00:53:00,0.0,2.03737,0.00043,382.018,0.130,1.3072,0.0012,139.999,45.000,34445.54280,2.06469,388.287,33.313,45.068,45.000,0.00,0.10,-272.73,-272.79,-8,1001,-6,24.2,34.5,7.5,23.9,35.6,7.7,5.73,1.95,4.0,27.9
2015-08-07 00:54:00,0.0,2.03808,0.00030,382.029,0.076,1.3076,0.0017,139.996,45.000,34442.63917,2.06538,388.296,33.313,45.068,45.000,0.00,0.10,-272.73,-272.79,-8,1001,-6,24.1,34.6,7.5,23.9,35.6,7.8,5.73,1.95,4.0,27.8
2015-08-07 00:55:00,0.0,2.03855,0.00038,382.037,0.087,1.3077,0.0027,140.003,45.000,34442.81034,2.06595,388.308,33.315,45.068,45.000,0.00,0.10,-272.73,-272.80,-8,1001,-6,24.2,34.5,7.5,23.9,35.6,7.8,5.73,1.95,4.0,27.8
2015-08-07 00:56:00,0.0,2.03790,0.00059,381.783,0.084,1.3032,0.0025,139.997,45.000,34443.94686,2.06522,388.039,33.314,45.068,45.000,0.00,0.10,-272.73,-272.79,-8,1001,-6,24.1,34.4,7.5,23.9,35.5,7.7,5.73,1.92,4.0,27.8
2015-08-07 00:57:00,0.0,2.03669,0.00073,381.812,0.251,1.2976,0.0026,139.999,45.000,34446.71738,2.06391,388.021,33.317,45.068,45.000,0.00,0.10,-272.72,-272.79,-8,1001,-6,24.1,34.2,7.4,23.9,35.3,7.6,5.73,1.89,4.0,27.9
2015-08-07 00:58:00,0.0,2.03711,0.00070,382.041,0.041,1.2957,0.0013,139.999,45.000,34443.01072,2.06410,388.252,33.313,45.068,45.000,0.00,0.10,-272.73,-272.79,-8,1001,-6,24.1,34.2,7.4,23.9,35.3,7.6,5.73,1.87,4.0,27.8
2015-08-07 00:59:00,0.0,2.03718,0.00097,381.912,0.160,1.2976,0.0018,139.999,45.000,34443.77366,2.06443,388.130,33.313,45.068,45.000,0.00,0.10,-272.73,-272.79,-8,1002,-6,24.1,34.3,7.4,23.9,35.3,7.6,5.73,1.88,4.0,27.9
2015-08-07 01:00:00,0.0,2.03682,0.00099,381.840,0.168,1.3024,0.0021,140.000,45.000,34444.17425,2.06395,388.081,33.317,45.068,45.000,0.00,0.10,-272.72,-272.79,-8,1001,-6,24.2,34.4,7.5,23.9,35.5,7.7,5.73,1.90,4.0,27.9
2015-08-07 01:01:00,0.0,2.03783,0.00026,381.756,0.089,1.3028,0.0017,140.000,45.000,34445.77763,2.06506,388.001,33.313,45.068,45.000,0.00,0.10,-272.73,-272.80,-7,1002,-6,24.1,34.4,7.5,23.9,35.5,7.7,5.73,1.93,4.0,27.9
2015-08-07 01:02:00,0.0,2.03760,0.00062,381.687,0.198,1.3028,0.0024,140.000,45.000,34446.74988,2.06489,387.928,33.326,45.068,45.000,0.00,0.10,-272.73,-272.79,-8,1001,-6,24.1,34.5,7.5,23.9,35.5,7.7,5.73,1.95,4.0,27.9
2015-08-07 01:03:00,0.0,2.03786,0.00053,381.383,0.227,1.3057,0.0025,139.998,45.000,34447.25414,2.06514,387.657,33.348,45.068,45.000,0.00,0.10,-272.73,-272.79,-8,1001,-6,24.1,34.5,7.5,23.9,35.6,7.7,5.73,1.95,4.0,27.8
2015-08-07 01:04:00,0.0,2.03339,0.00311,381.522,0.564,1.3084,0.0024,139.998,45.000,34446.73285,2.06108,387.765,33.353,45.068,45.000,0.00,0.10,-272.73,-272.78,-8,1001,-6,24.1,34.6,7.6,23.9,35.7,7.8,5.73,1.94,4.0,27.9
2015-08-07 01:05:00,0.0,2.03357,0.00070,381.827,0.096,1.3130,0.0022,140.002,45.000,34448.16909,2.06087,388.121,33.339,45.068,45.000,0.00,0.10,-272.74,-272.79,-8,1001,-6,24.1,34.7,7.6,23.9,35.8,7.8,5.73,1.92,4.0,27.9
2015-08-07 01:06:00,0.0,2.03448,0.00044,381.778,0.189,1.3171,0.0016,140.000,45.000,34445.37508,2.06195,388.085,33.327,45.068,45.000,0.00,0.10,-272.73,-272.79,-8,1002,-6,24.1,34.8,7.6,23.9,35.9,7.8,5.73,1.89,4.0,27.9
2015-08-07 01:07:00,0.0,2.03496,0.00048,381.490,0.277,1.3201,0.0020,139.999,45.000,34445.89701,2.06250,387.840,33.320,45.068,45.000,0.00,0.10,-272.73,-272.79,-8,1001,-6,24.1,35.0,7.7,23.9,36.0,7.9,5.73,1.88,4.0,27.9
2015-08-07 01:08:00,0.0,2.03560,0.00045,381.522,0.157,1.3243,0.0016,140.000,45.000,34445.84931,2.06334,387.848,33.318,45.068,45.000,0.00,0.10,-272.73,-272.79,-8,1001,-6,24.2,35.0,7.7,23.9,36.1,7.9,5.73,1.88,4.0,27.8
2015-08-07 01:09:00,0.0,2.03649,0.00054,381.345,0.259,1.3214,0.0021,140.002,45.000,34445.91512,2.06404,387.694,33.315,45.068,45.000,0.00,0.10,-272.73,-272.79,-8,1001,-6,24.2,34.9,7.7,23.9,36.1,8.0,5.73,1.90,4.0,27.9
2015-08-07 01:10:00,0.0,2.03675,0.00085,381.508,0.269,1.3227,0.0015,139.998,45.000,34445.12499,2.06437,387.824,33.313,45.068,45.000,0.00,0.10,-272.72,-272.79,-8,1002,-6,24.2,34.9,7.7,23.9,36.1,7.9,5.73,1.92,4.0,27.9
2015-08-07 01:11:00,0.0,2.03718,0.00038,381.627,0.160,1.3214,0.0021,140.000,45.000,34443.78557,2.06484,387.958,33.314,45.068,45.000,0.00,0.10,-272.73,-272.79,-8,1001,-6,24.2,34.9,7.7,23.9,36.1,7.9,5.73,1.94,4.0,27.9
2015-08-07 01:12:00,0.0,2.03815,0.00058,381.528,0.164,1.3204,0.0023,139.999,45.000,34444.82255,2.06574,387.862,33.313,45.068,45.000,0.00,0.10,-272.73,-272.80,-8,1002,-6,24.2,34.8,7.7,23.9,36.0,7.9,5.73,1.95,4.0,28.0
2015-08-07 01:13:00,0.0,2.03876,0.00037,381.496,0.232,1.3186,0.0015,140.004,45.000,34447.61373,2.06636,387.826,33.310,45.068,45.000,0.00,0.10,-272.73,-272.79,-8,1001,-6,24.2,34.7,7.6,23.9,35.9,7.9,5.73,1.94,4.0,27.9
2015-08-07 01:14:00,0.0,2.03852,0.00065,381.431,0.211,1.3115,0.0025,140.000,45.000,34445.77799,2.06612,387.691,33.310,45.068,45.000,0.00,0.10,-272.73,-272.79,-8,1001,-6,24.2,34.5,7.6,23.9,35.7,7.8,5.73,1.92,4.0,27.9
2015-08-07 01:15:00,0.0,2.03844,0.00070,381.439,0.130,1.3071,0.0017,139.999,45.000,34445.80750,2.06568,387.704,33.308,45.068,45.000,0.00,0.10,-272.73,-272.80,-8,1001,-6,24.1,34.5,7.5,23.9,35.6,7.8,5.73,1.90,4.0,28.0
2015-08-07 01:16:00,0.0,2.03782,0.00038,381.630,0.083,1.3084,0.0030,139.998,45.000,34443.57571,2.06526,387.892,33.302,45.068,45.000,0.00,0.10,-272.73,-272.80,-8,1001,-6,24.2,34.5,7.5,23.9,35.6,7.8,5.73,1.88,4.0,27.9
2015-08-07 01:17:00,0.0,2.03780,0.00084,380.968,0.303,1.3110,0.0031,140.000,45.000,34446.55090,2.06524,387.269,33.313,45.068,45.000,0.00,0.10,-272.72,-272.79,-8,1001,-6,24.2,34.6,7.6,23.9,35.7,7.8,5.73,1.88,4.0,27.9
2015-08-07 01:18:00,0.0,2.03750,0.00060,381.078,0.396,1.3147,0.0022,140.001,45.000,34446.52419,2.06498,387.338,33.313,45.068,45.000,0.00,0.10,-272.73,-272.79,-8,1001,-6,24.2,34.8,7.6,23.9,35.8,7.8,5.73,1.89,4.0,27.9
2015-08-07 01:19:00,0.0,2.03754,0.00057,381.577,0.089,1.3174,0.0025,140.004,45.000,34445.97885,2.06509,387.894,33.313,45.068,45.000,0.00,0.10,-272.73,-272.79,-8,1002,-6,24.2,34.8,7.6,23.9,35.9,7.9,5.73,1.91,4.0,27.9
2015-08-07 01:20:00,0.0,2.03831,0.00047,381.247,0.196,1.3227,0.0022,139.998,45.000,34444.49443,2.06600,387.587,33.314,45.068,45.000,0.00,0.10,-272.73,-272.79,-8,1001,-6,24.2,35.0,7.7,23.9,36.1,8.0,5.73,1.94,4.0,27.9
2015-08-07 01:21:00,0.0,2.03816,0.00093,381.142,0.308,1.3241,0.0027,140.001,45.000,34444.36748,2.06590,387.471,33.313,45.068,45.000,0.00,0.10,-272.73,-272.79,-8,1002,-6,24.2,34.9,7.7,23.9,36.1,8.0,5.73,1.95,4.0,27.9
2015-08-07 01:22:00,0.0,2.03843,0.00048,381.238,0.241,1.3195,0.0020,139.998,45.000,34441.61667,2.06607,387.551,33.313,45.068,45.000,0.00,0.10,-272.73,-272.79,-8,1001,-6,24.2,34.7,7.6,23.9,35.9,7.9,5.73,1.94,4.0,27.9
2015-08-07 01:23:00,0.0,2.03796,0.00067,380.567,0.368,1.3206,0.0019,140.001,45.000,34442.91180,2.06566,386.894,33.315,45.068,45.000,0.00,0.10,-272.73,-272.79,-8,1001,-6,24.2,34.8,7.7,23.9,36.0,7.9,5.73,1.93,4.0,27.9
2015-08-07 01:24:00,0.0,2.03622,0.00088,381.278,0.151,1.3237,0.0016,140.002,45.000,34443.98893,2.06404,387.603,33.319,45.068,45.000,0.00,0.10,-272.73,-272.79,-8,1001,-6,24.2,34.9,7.7,23.9,36.1,7.9,5.73,1.91,4.0,27.9
2015-08-07 01:25:00,0.0,2.03439,0.00065,381.444,0.069,1.3273,0.0021,139.999,45.000,34442.46750,2.06218,387.802,33.326,45.068,45.000,0.00,0.10,-272.74,-272.79,-8,1002,-6,24.2,35.1,7.8,23.9,36.2,8.0,5.73,1.89,4.0,27.9
2015-08-07 01:26:00,0.0,2.03390,0.00107,381.219,0.199,1.3310,0.0020,139.999,45.000,34442.66298,2.06177,387.595,33.338,45.068,45.000,0.00,0.10,-272.73,-272.80,-8,1001,-6,24.2,35.1,7.8,23.9,36.3,8.0,5.73,1.88,4.0,27.9
2015-08-07 01:27:00,0.0,2.03524,0.00057,381.178,0.192,1.3309,0.0015,140.002,45.000,34444.53971,2.06294,387.555,33.330,45.068,45.000,0.00,0.10,-272.72,-272.80,-8,1001,-6,24.2,35.1,7.8,23.9,36.3,8.0,5.73,1.88,4.0,28.0
2015-08-07 01:28:00,0.0,2.03688,0.00046,381.075,0.221,1.3290,0.0024,140.003,45.000,34446.23129,2.06465,387.436,33.320,45.068,45.000,0.00,0.10,-272.73,-272.79,-8,1002,-6,24.2,35.0,7.7,23.9,36.2,8.0,5.73,1.90,4.0,28.0
2015-08-07 01:29:00,0.0,2.03732,0.00036,381.217,0.142,1.3280,0.0023,139.996,45.000,34444.19940,2.06507,387.590,33.313,45.068,45.000,0.00,0.10,-272.73,-272.80,-8,1001,-6,24.2,35.0,7.7,23.9,36.2,8.0,5.73,1.92,4.0,27.9
2015-08-07 01:30:00,0.0,2.03793,0.00098,381.193,0.170,1.3254,0.0012,140.002,45.000,34447.88691,2.06564,387.531,33.319,45.068,45.000,0.00,0.10,-272.73,-272.79,-8,1001,-6,24.2,34.9,7.7,23.9,36.1,8.0,5.73,1.94,4.0,27.9
2015-08-07 01:31:00,0.0,2.03830,0.00089,381.122,0.127,1.3224,0.0024,140.002,45.000,34447.50914,2.06609,387.446,33.319,45.068,45.000,0.00,0.10,-272.73,-272.79,-8,1001,-6,24.2,34.8,7.6,23.9,36.0,7.9,5.73,1.94,4.0,27.9
2015-08-07 01:32:00,0.0,2.03627,0.00078,381.331,0.119,1.3183,0.0024,140.002,45.000,34445.42506,2.06388,387.643,33.327,45.068,45.000,0.00,0.10,-272.73,-272.79,-8,1001,-6,24.2,34.7,7.6,23.9,35.9,7.9,5.73,1.94,4.0,28.0
2015-08-07 01:33:00,0.0,2.03583,0.00082,381.365,0.098,1.3162,0.0022,140.003,45.000,34446.69700,2.06332,387.668,33.332,45.068,45.000,0.00,0.10,-272.73,-272.79,-8,1002,-6,24.2,34.6,7.6,23.9,35.8,7.9,5.73,1.92,4.0,27.9
2015-08-07 01:34:00,0.0,2.03759,0.00078,381.233,0.117,1.3173,0.0021,140.000,45.000,34443.89664,2.06510,387.548,33.343,45.068,45.000,0.00,0.10,-272.72,-272.78,-8,1002,-6,24.2,34.7,7.6,23.9,35.9,7.9,5.73,1.90,4.0,27.9
2015-08-07 01:35:00,0.0,2.03824,0.00043,381.143,0.150,1.3169,0.0031,140.002,45.000,34446.46526,2.06582,387.438,33.322,45.068,45.000,0.00,0.10,-272.73,-272.79,-8,1002,-6,24.2,34.7,7.6,23.9,35.9,7.9,5.73,1.88,4.0,27.9
2015-08-07 01:36:00,0.0,2.03678,0.00134,381.086,0.140,1.3201,0.0026,139.997,45.000,34444.91909,2.06455,387.406,33.321,45.068,45.000,0.00,0.10,-272.73,-272.79,-8,1001,-6,24.2,34.7,7.6,23.9,35.9,7.9,5.73,1.88,4.0,28.0
2015-08-07 01:37:00,0.0,2.03477,0.00081,380.969,0.212,1.3220,0.0021,140.004,45.000,34445.35607,2.06248,387.309,33.322,45.068,45.000,0.00,0.10,-272.72,-272.79,-8,1001,-6,24.2,34.8,7.7,23.9,36.0,7.9,5.73,1.89,4.0,28.0
2015-08-07 01:38:00,0.0,2.03382,0.00040,380.670,0.191,1.3268,0.0035,139.997,45.000,34445.75203,2.06152,387.010,33.341,45.068,45.000,0.00,0.10,-272.73,-272.79,-8,1001,-6,24.2,35.0,7.8,23.9,36.1,8.0,5.73,1.91,4.0,28.0
2015-08-07 01:39:00,0.0,2.03437,0.00044,380.321,0.222,1.3365,0.0040,139.997,45.000,34442.64388,2.06229,386.712,33.327,45.068,45.000,0.00,0.10,-272.73,-272.80,-8,1002,-6,24.2,35.3,7.9,23.9,36.4,8.1,5.73,1.93,4.0,28.0
2015-08-07 01:40:00,0.0,2.03298,0.00113,380.990,0.290,1.3459,0.0035,140.001,45.000,34441.59795,2.06126,387.418,33.320,45.068,45.000,0.00,0.10,-272.73,-272.79,-8,1001,-6,24.2,35.6,8.0,23.9,36.7,8.2,5.73,1.94,4.1,28.0
2015-08-07 01:41:00,0.0,2.03263,0.00108,380.618,0.205,1.3539,0.0035,139.998,45.000,34444.85002,2.06097,387.103,33.330,45.068,45.000,0.00,0.10,-272.73,-272.79,-8,1001,-6,24.2,35.8,8.1,23.9,37.0,8.3,5.73,1.95,4.0,27.9
2015-08-07 01:42:00,0.0,2.03198,0.00066,380.485,0.363,1.3618,0.0029,140.003,45.000,34445.32600,2.06045,386.987,33.353,45.068,45.000,0.00,0.10,-272.74,-272.80,-8,1001,-6,24.2,36.1,8.2,23.9,37.2,8.4,5.73,1.94,4.0,27.9
2015-08-07 01:43:00,0.0,2.03200,0.00046,381.165,0.116,1.3654,0.0020,139.998,45.000,34442.83398,2.06048,387.715,33.342,45.068,45.000,0.00,0.10,-272.73,-272.79,-7,1001,-6,24.2,36.1,8.2,23.9,37.3,8.5,5.73,1.91,4.0,27.9
2015-08-07 01:44:00,0.0,2.03385,0.00075,380.125,0.420,1.3713,0.0021,139.999,45.000,34442.58084,2.06251,386.692,33.357,45.068,45.000,0.00,0.10,-272.73,-272.78,-8,1001,-6,24.2,36.3,8.3,23.9,37.5,8.5,5.73,1.89,4.0,27.9
2015-08-07 01:45:00,0.0,2.03255,0.00063,380.525,0.238,1.3759,0.0019,139.999,45.000,34444.48555,2.06141,387.109,33.372,45.068,45.000,0.00,0.10,-272.73,-272.79,-8,1002,-6,24.2,36.3,8.3,23.9,37.6,8.6,5.73,1.88,4.1,27.9
2015-08-07 01:46:00,0.0,2.03076,0.00052,380.862,0.165,1.3726,0.0019,139.999,45.000,34444.55772,2.05950,387.441,33.363,45.068,45.000,0.00,0.10,-272.73,-272.80,-8,1001,-6,24.2,36.2,8.3,23.9,37.5,8.5,5.73,1.88,4.0,28.0
2015-08-07 01:47:00,0.0,2.02990,0.00129,380.581,0.199,1.3711,0.0027,140.002,45.000,34445.00723,2.05859,387.147,33.335,45.068,45.000,0.00,0.10,-272.72,-272.79,-8,1001,-6,24.2,36.1,8.2,23.9,37.4,8.5,5.73,1.90,4.0,27.9